Location: Unspecified
(0.0000°N, 0.0000°E)
Time: 23:12:09
(UTC+01:00)

ISS - All Passes

Search period start: 31 October 2014 00:00
Search period end: 10 November 2014 00:00
Orbit: 412 x 417 km, 51.6° (Epoch: 31 October)

Date Brightness Start Highest point End Pass type
(mag) Time Alt. Az. Time Alt. Az. Time Alt. Az.
31 Oct - 07:41:36 10° SSW 07:44:48 45° SE 07:47:58 10° NE daylight
31 Oct - 19:17:16 10° N 19:20:12 29° NE 19:23:08 10° ESE visible
01 Nov - 06:53:16 10° S 06:55:41 19° SE 06:58:05 10° ENE daylight
01 Nov - 08:30:33 10° W 08:32:10 13° NW 08:33:46 10° NNW daylight
01 Nov - 18:29:31 10° NNE 18:31:03 13° NE 18:32:35 10° E daylight
01 Nov - 20:05:02 10° WNW 20:07:32 20° SW 20:10:04 10° S visible
02 Nov - 07:40:03 10° WSW 07:43:00 30° NW 07:45:56 10° N daylight
02 Nov - 19:15:08 10° NW 19:18:22 48° SW 19:21:36 10° SSE visible
03 Nov - 06:50:31 10° SW 06:53:49 82° NW 06:57:06 10° NNE daylight
03 Nov - 18:25:53 10° NNW 18:29:09 59° NE 18:32:26 10° SE daylight
04 Nov - 06:01:31 10° SSW 06:04:35 35° SE 06:07:39 10° ENE visible
04 Nov - 17:37:13 10° N 17:39:54 23° NE 17:42:37 10° ESE daylight
04 Nov - 19:15:30 10° WSW 19:16:24 11° SW 19:17:18 10° SW visible
05 Nov - 05:13:17 10° SSE 05:15:18 15° SE 05:17:19 10° E visible
05 Nov - 06:49:39 10° W 06:51:47 16° NW 06:53:55 10° NNW daylight
05 Nov - 16:50:29 10° NE 16:50:36 10° NE 16:50:43 10° NE daylight
05 Nov - 18:24:18 10° WNW 18:27:05 25° SW 18:29:52 10° S daylight
06 Nov - 05:59:22 10° SW 06:02:28 38° NW 06:05:33 10° NNE visible
06 Nov - 17:34:28 10° NW 17:37:45 64° SW 17:41:02 10° SSE daylight
07 Nov - 05:09:49 10° SSW 05:13:07 75° SE 05:16:24 10° NE visible
07 Nov - 16:45:12 10° NNW 16:48:23 44° NE 16:51:34 10° SE daylight
08 Nov - 04:20:51 10° S 04:23:44 27° SE 04:26:36 10° ENE visible
08 Nov - 15:56:36 10° N 15:58:58 18° NE 16:01:20 10° E daylight
08 Nov - 17:33:40 10° W 17:35:26 14° SW 17:37:12 10° SSW daylight
09 Nov - 03:32:55 10° SSE 03:34:17 12° SE 03:35:39 10° ESE night (unlit)
09 Nov - 05:08:13 10° WSW 05:10:45 20° NW 05:13:16 10° N night (unlit)
09 Nov - 16:42:58 10° WNW 16:45:58 31° SW 16:48:58 10° S daylight
